| time (UTC) | temp F | wind direction | speed MPH | gust MPH | rain 1hr in | rain 24hr in | rain mn in | humidity % | barometer mb |
| 20260507005924 | 56 | 80 | 0.0 | 5.0 | 0.00 | 0.00 | 0.00 | 73 | 1020.9 |
| 20260507005421 | 56 | 84 | 1.0 | 3.0 | 0.00 | 0.00 | 0.00 | 73 | 1020.9 |
| 20260507004917 | 56 | 72 | 3.0 | 5.0 | 0.00 | 0.00 | 0.00 | 70 | 1020.8 |
| 20260507004414 | 57 | 74 | 4.0 | 7.0 | 0.00 | 0.00 | 0.00 | 70 | 1020.7 |
| 20260507003912 | 57 | 65 | 5.0 | 6.0 | 0.00 | 0.00 | 0.00 | 68 | 1020.9 |
| 20260507003407 | 57 | 33 | 1.0 | 3.0 | 0.00 | 0.00 | 0.00 | 69 | 1020.7 |
| 20260507002902 | 57 | 57 | 3.0 | 4.0 | 0.00 | 0.00 | 0.00 | 68 | 1020.6 |
| 20260507002358 | 57 | 70 | 5.0 | 6.0 | 0.00 | 0.00 | 0.00 | 68 | 1021.0 |
| 20260507001856 | 57 | 99 | 4.0 | 4.0 | 0.00 | 0.00 | 0.00 | 70 | 1020.6 |
| 20260507001352 | 57 | 56 | 3.0 | 7.0 | 0.00 | 0.00 | 0.00 | 68 | 1020.7 |
| 20260507000849 | 57 | 64 | 2.0 | 4.0 | 0.00 | 0.00 | 0.00 | 71 | 1020.7 |
| 20260507000344 | 58 | 14 | 3.0 | 6.0 | 0.00 | 0.00 | 0.00 | 67 | 1020.8 |
| 20260506235841 | 58 | 40 | 1.0 | 5.0 | 0.00 | 0.00 | 0.00 | 67 | 1020.7 |
| 20260506235338 | 58 | 23 | 0.0 | 6.0 | 0.00 | 0.00 | 0.00 | 67 | 1020.4 |
| 20260506234834 | 58 | 33 | 4.0 | 6.0 | 0.00 | 0.00 | 0.00 | 65 | 1020.7 |
| 20260506234332 | 58 | 51 | 4.0 | 8.0 | 0.00 | 0.00 | 0.00 | 67 | 1020.6 |
| 20260506233830 | 58 | 36 | 3.0 | 6.0 | 0.00 | 0.00 | 0.00 | 67 | 1020.4 |
| 20260506233325 | 58 | 36 | 3.0 | 6.0 | 0.00 | 0.00 | 0.00 | 68 | 1020.4 |
| 20260506232822 | 58 | 4 | 2.0 | 7.0 | 0.00 | 0.00 | 0.00 | 68 | 1020.5 |
| 20260506232318 | 58 | 34 | 2.0 | 5.0 | 0.00 | 0.00 | 0.00 | 67 | 1020.7 |
| 20260506231815 | 58 | 46 | 7.0 | 8.0 | 0.00 | 0.00 | 0.00 | 67 | 1020.3 |
| 20260506231313 | 58 | 353 | 2.0 | 5.0 | 0.00 | 0.00 | 0.00 | 68 | 1020.5 |
| 20260506230810 | 58 | 77 | 8.0 | 9.0 | 0.00 | 0.00 | 0.00 | 67 | 1020.3 |
| 20260506230306 | 58 | 61 | 3.0 | 10.0 | 0.00 | 0.00 | 0.00 | 67 | 1020.6 |
| 20260506225803 | 58 | 68 | 5.0 | 10.0 | 0.00 | 0.00 | 0.00 | 65 | 1020.4 |
| 20260506225300 | 59 | 55 | 3.0 | 9.0 | 0.00 | 0.00 | 0.00 | 69 | 1020.1 |
| 20260506224756 | 59 | 35 | 3.0 | 7.0 | 0.00 | 0.00 | 0.00 | 65 | 1020.2 |
| 20260506224254 | 59 | 3 | 3.0 | 10.0 | 0.00 | 0.00 | 0.00 | 67 | 1020.0 |
| 20260506223750 | 59 | 40 | 3.0 | 7.0 | 0.00 | 0.00 | 0.00 | 65 | 1020.0 |
| 20260506223245 | 60 | 1 | 3.0 | 7.0 | 0.00 | 0.00 | 0.00 | 65 | 1019.8 |
| 20260506222743 | 59 | 53 | 5.0 | 8.0 | 0.00 | 0.00 | 0.00 | 64 | 1019.6 |
| 20260506222238 | 59 | 342 | 3.0 | 12.0 | 0.00 | 0.00 | 0.00 | 65 | 1019.3 |
| 20260506221736 | 58 | 71 | 6.0 | 12.0 | 0.00 | 0.00 | 0.00 | 65 | 1019.2 |
| 20260506221234 | 58 | 51 | 8.0 | 13.0 | 0.00 | 0.00 | 0.00 | 65 | 1019.1 |
| 20260506220731 | 59 | 55 | 4.0 | 10.0 | 0.00 | 0.00 | 0.00 | 66 | 1019.2 |
| 20260506220226 | 59 | 343 | 7.0 | 9.0 | 0.00 | 0.00 | 0.00 | 65 | 1019.0 |
| 20260506215723 | 59 | 0 | 7.0 | 11.0 | 0.00 | 0.00 | 0.00 | 66 | 1018.9 |
| 20260506215218 | 59 | 358 | 3.0 | 11.0 | 0.00 | 0.00 | 0.00 | 65 | 1018.8 |
| 20260506214715 | 59 | 351 | 4.0 | 11.0 | 0.00 | 0.00 | 0.00 | 64 | 1019.1 |
| 20260506214212 | 59 | 358 | 3.0 | 7.0 | 0.00 | 0.00 | 0.00 | 64 | 1019.3 |
| 20260506213711 | 60 | 356 | 5.0 | 9.0 | 0.00 | 0.00 | 0.00 | 63 | 1019.3 |
| 20260506213208 | 59 | 23 | 6.0 | 12.0 | 0.00 | 0.00 | 0.00 | 64 | 1019.3 |
| 20260506212705 | 59 | 354 | 4.0 | 9.0 | 0.00 | 0.00 | 0.00 | 64 | 1019.5 |
| 20260506212200 | 59 | 54 | 5.0 | 11.0 | 0.00 | 0.00 | 0.00 | 64 | 1019.5 |
| 20260506211656 | 59 | 11 | 3.0 | 12.0 | 0.00 | 0.00 | 0.00 | 66 | 1019.8 |
| 20260506211152 | 58 | 25 | 3.0 | 8.0 | 0.00 | 0.00 | 0.00 | 66 | 1019.8 |
| 20260506210649 | 58 | 346 | 4.0 | 7.0 | 0.00 | 0.00 | 0.00 | 64 | 1019.8 |
| 20260506210146 | 57 | 51 | 8.0 | 13.0 | 0.00 | 0.00 | 0.00 | 65 | 1019.9 |
| 20260506205643 | 59 | 59 | 9.0 | 10.0 | 0.00 | 0.00 | 0.00 | 65 | 1019.6 |
| 20260506205138 | 57 | 33 | 5.0 | 10.0 | 0.00 | 0.00 | 0.00 | 66 | 1020.0 |
| 20260506204636 | 58 | 51 | 4.0 | 11.0 | 0.00 | 0.00 | 0.00 | 64 | 1019.7 |
| 20260506204132 | 59 | 32 | 4.0 | 10.0 | 0.00 | 0.00 | 0.00 | 66 | 1020.2 |
| 20260506203631 | 59 | 6 | 4.0 | 8.0 | 0.00 | 0.00 | 0.00 | 65 | 1020.2 |
| 20260506203127 | 59 | 357 | 5.0 | 7.0 | 0.00 | 0.00 | 0.00 | 65 | 1020.3 |
| 20260506202626 | 59 | 67 | 3.0 | 6.0 | 0.00 | 0.00 | 0.00 | 65 | 1020.5 |
| 20260506202121 | 58 | 3 | 3.0 | 14.0 | 0.00 | 0.00 | 0.00 | 67 | 1020.7 |
| 20260506201619 | 58 | 42 | 3.0 | 6.0 | 0.00 | 0.00 | 0.00 | 65 | 1020.5 |
| 20260506201115 | 58 | 53 | 3.0 | 8.0 | 0.00 | 0.00 | 0.00 | 66 | 1020.7 |
| 20260506200611 | 57 | 6 | 3.0 | 10.0 | 0.00 | 0.00 | 0.00 | 64 | 1020.8 |
| 20260506200108 | 58 | 44 | 7.0 | 12.0 | 0.00 | 0.00 | 0.00 | 63 | 1020.7 |
| 20260506195605 | 58 | 351 | 7.0 | 8.0 | 0.00 | 0.00 | 0.00 | 64 | 1020.9 |
| 20260506195102 | 58 | 0 | 5.0 | 12.0 | 0.00 | 0.00 | 0.00 | 61 | 1020.8 |
| 20260506194559 | 58 | 358 | 5.0 | 9.0 | 0.00 | 0.00 | 0.00 | 61 | 1020.9 |
| 20260506194055 | 59 | 34 | 7.0 | 12.0 | 0.00 | 0.00 | 0.00 | 60 | 1021.0 |
| 20260506193553 | 59 | 5 | 4.0 | 10.0 | 0.00 | 0.00 | 0.00 | 58 | 1021.4 |
| 20260506193050 | 58 | 348 | 4.0 | 9.0 | 0.00 | 0.00 | 0.00 | 59 | 1021.3 |
| 20260506192547 | 57 | 48 | 5.0 | 11.0 | 0.00 | 0.00 | 0.00 | 63 | 1021.4 |
| 20260506192043 | 58 | 30 | 3.0 | 10.0 | 0.00 | 0.00 | 0.00 | 60 | 1021.2 |
| 20260506191539 | 59 | 53 | 7.0 | 14.0 | 0.00 | 0.00 | 0.00 | 59 | 1021.4 |
| 20260506191035 | 59 | 354 | 9.0 | 11.0 | 0.00 | 0.00 | 0.00 | 63 | 1021.3 |
| 20260506190533 | 59 | 5 | 5.0 | 13.0 | 0.00 | 0.00 | 0.00 | 58 | 1021.3 |
| 20260506190030 | 60 | 29 | 4.0 | 8.0 | 0.00 | 0.00 | 0.00 | 63 | 1021.6 |
| 20260506185527 | 61 | 331 | 5.0 | 7.0 | 0.00 | 0.00 | 0.00 | 64 | 1021.3 |
| 20260506185023 | 59 | 40 | 6.0 | 12.0 | 0.00 | 0.00 | 0.00 | 63 | 1021.5 |
| 20260506184521 | 58 | 349 | 8.0 | 12.0 | 0.00 | 0.00 | 0.00 | 66 | 1021.3 |
| 20260506184018 | 57 | 328 | 5.0 | 7.0 | 0.00 | 0.00 | 0.00 | 66 | 1021.1 |
| 20260506183513 | 58 | 343 | 9.0 | 10.0 | 0.00 | 0.00 | 0.00 | 67 | 1021.4 |
| 20260506183010 | 57 | 350 | 11.0 | 11.0 | 0.00 | 0.00 | 0.00 | 72 | 1021.5 |
| 20260506182508 | 56 | 345 | 5.0 | 12.0 | 0.00 | 0.00 | 0.00 | 70 | 1021.3 |
| 20260506182005 | 57 | 7 | 3.0 | 7.0 | 0.00 | 0.00 | 0.00 | 69 | 1021.5 |
| 20260506181503 | 57 | 353 | 6.0 | 12.0 | 0.00 | 0.00 | 0.00 | 70 | 1021.2 |
| 20260506180959 | 56 | 11 | 5.0 | 9.0 | 0.00 | 0.00 | 0.00 | 72 | 1021.9 |
| 20260506180456 | 55 | 356 | 7.0 | 11.0 | 0.00 | 0.00 | 0.00 | 74 | 1021.9 |
| 20260506175952 | 56 | 357 | 7.0 | 13.0 | 0.00 | 0.00 | 0.00 | 72 | 1021.7 |
| 20260506175449 | 56 | 337 | 5.0 | 14.0 | 0.00 | 0.00 | 0.00 | 71 | 1021.9 |
| 20260506174946 | 56 | 344 | 6.0 | 11.0 | 0.00 | 0.00 | 0.00 | 71 | 1021.7 |
| 20260506174444 | 57 | 355 | 6.0 | 10.0 | 0.00 | 0.00 | 0.00 | 73 | 1021.7 |
| 20260506173940 | 55 | 352 | 5.0 | 8.0 | 0.00 | 0.00 | 0.00 | 73 | 1022.0 |
| 20260506173438 | 56 | 353 | 7.0 | 10.0 | 0.00 | 0.00 | 0.00 | 72 | 1022.0 |
| 20260506172934 | 56 | 11 | 5.0 | 9.0 | 0.00 | 0.00 | 0.00 | 71 | 1022.2 |
| 20260506172432 | 56 | 65 | 3.0 | 7.0 | 0.00 | 0.00 | 0.00 | 74 | 1022.4 |
| 20260506171928 | 55 | 55 | 3.0 | 6.0 | 0.00 | 0.00 | 0.00 | 74 | 1022.3 |
| 20260506171426 | 55 | 356 | 3.0 | 5.0 | 0.00 | 0.00 | 0.00 | 75 | 1022.4 |
| 20260506170924 | 54 | 69 | 7.0 | 10.0 | 0.00 | 0.00 | 0.00 | 72 | 1022.6 |
| 20260506170419 | 54 | 74 | 4.0 | 12.0 | 0.00 | 0.00 | 0.00 | 73 | 1022.3 |
| 20260506165919 | 54 | 89 | 4.0 | 10.0 | 0.00 | 0.00 | 0.00 | 76 | 1022.4 |
| 20260506165416 | 54 | 39 | 5.0 | 10.0 | 0.00 | 0.00 | 0.00 | 75 | 1022.2 |
| 20260506164912 | 54 | 54 | 4.0 | 9.0 | 0.00 | 0.00 | 0.00 | 76 | 1022.1 |
| 20260506164408 | 53 | 77 | 18.0 | 18.0 | 0.00 | 0.00 | 0.00 | 73 | 1021.9 |
| 20260506163902 | 55 | 353 | 4.0 | 10.0 | 0.00 | 0.00 | 0.00 | 74 | 1021.8 |
| 20260506163355 | 55 | 0 | 5.0 | 11.0 | 0.00 | 0.00 | 0.00 | 74 | 1021.9 |
| 20260506162850 | 54 | 3 | 4.0 | 8.0 | 0.00 | 0.00 | 0.00 | 74 | 1021.6 |
| 20260506162349 | 54 | 338 | 1.0 | 10.0 | 0.00 | 0.00 | 0.00 | 76 | 1021.6 |
| 20260506161846 | 53 | 61 | 7.0 | 17.0 | 0.00 | 0.00 | 0.00 | 77 | 1021.6 |
| 20260506161343 | 53 | 37 | 9.0 | 13.0 | 0.00 | 0.00 | 0.00 | 74 | 1021.6 |
| 20260506160841 | 53 | 18 | 10.0 | 12.0 | 0.00 | 0.00 | 0.00 | 76 | 1021.5 |
| 20260506160337 | 53 | 21 | 5.0 | 8.0 | 0.00 | 0.00 | 0.00 | 77 | 1021.4 |
| 20260506155836 | 53 | 3 | 5.0 | 11.0 | 0.00 | 0.00 | 0.00 | 75 | 1021.4 |
| 20260506155332 | 53 | 350 | 5.0 | 12.0 | 0.00 | 0.00 | 0.00 | 76 | 1021.4 |
| 20260506153444 | 53 | 356 | 4.0 | 11.0 | 0.00 | 0.00 | 0.00 | 78 | 1021.1 |
| 20260506152942 | 53 | 339 | 6.0 | 9.0 | 0.00 | 0.00 | 0.00 | 76 | 1021.3 |
| 20260506152439 | 52 | 12 | 7.0 | 17.0 | 0.00 | 0.00 | 0.00 | 78 | 1021.1 |
| 20260506151937 | 53 | 41 | 7.0 | 11.0 | 0.00 | 0.00 | 0.00 | 78 | 1021.3 |
| 20260506151434 | 53 | 354 | 6.0 | 9.0 | 0.00 | 0.00 | 0.00 | 78 | 1021.3 |
| 20260506150932 | 53 | 0 | 5.0 | 9.0 | 0.00 | 0.00 | 0.00 | 77 | 1021.4 |
| 20260506150427 | 52 | 7 | 5.0 | 14.0 | 0.00 | 0.00 | 0.00 | 78 | 1021.6 |
| 20260506145925 | 52 | 56 | 10.0 | 13.0 | 0.00 | 0.00 | 0.00 | 78 | 1021.4 |
| 20260506145421 | 52 | 16 | 5.0 | 9.0 | 0.00 | 0.00 | 0.00 | 79 | 1021.6 |
| 20260506144919 | 51 | 49 | 6.0 | 11.0 | 0.00 | 0.00 | 0.00 | 79 | 1021.5 |
| 20260506144415 | 50 | 331 | 5.0 | 15.0 | 0.00 | 0.00 | 0.00 | 79 | 1020.8 |
| 20260506143914 | 50 | 47 | 6.0 | 11.0 | 0.00 | 0.00 | 0.00 | 80 | 1021.2 |
| 20260506143410 | 50 | 32 | 5.0 | 10.0 | 0.00 | 0.00 | 0.00 | 82 | 1021.0 |
| 20260506142908 | 50 | 41 | 6.0 | 13.0 | 0.00 | 0.00 | 0.00 | 84 | 1020.8 |
| 20260506142406 | 49 | 356 | 6.0 | 9.0 | 0.00 | 0.00 | 0.00 | 84 | 1021.2 |
| 20260506141904 | 49 | 354 | 4.0 | 13.0 | 0.00 | 0.00 | 0.00 | 84 | 1020.9 |
| 20260506141401 | 50 | 349 | 5.0 | 9.0 | 0.00 | 0.00 | 0.00 | 84 | 1020.8 |
| 20260506140900 | 49 | 22 | 9.0 | 10.0 | 0.00 | 0.00 | 0.00 | 85 | 1020.8 |
| 20260506140356 | 49 | 336 | 8.0 | 11.0 | 0.00 | 0.00 | 0.00 | 84 | 1020.6 |
| 20260506135853 | 49 | 345 | 7.0 | 12.0 | 0.00 | 0.00 | 0.00 | 84 | 1020.7 |
| 20260506135350 | 49 | 25 | 6.0 | 11.0 | 0.00 | 0.00 | 0.00 | 83 | 1020.9 |
| 20260506134846 | 49 | 25 | 5.0 | 14.0 | 0.00 | 0.00 | 0.00 | 83 | 1021.1 |
| 20260506134343 | 49 | 352 | 8.0 | 11.0 | 0.00 | 0.00 | 0.00 | 82 | 1021.0 |
| 20260506133840 | 49 | 1 | 9.0 | 10.0 | 0.00 | 0.00 | 0.00 | 83 | 1021.1 |
| 20260506133336 | 49 | 342 | 4.0 | 9.0 | 0.00 | 0.00 | 0.00 | 83 | 1021.2 |
| 20260506132833 | 49 | 4 | 5.0 | 8.0 | 0.00 | 0.00 | 0.00 | 83 | 1021.4 |
| 20260506132330 | 49 | 356 | 11.0 | 11.0 | 0.00 | 0.00 | 0.00 | 82 | 1021.2 |
| 20260506131828 | 49 | 346 | 4.0 | 10.0 | 0.00 | 0.00 | 0.00 | 84 | 1021.1 |
| 20260506131324 | 49 | 7 | 4.0 | 10.0 | 0.00 | 0.00 | 0.00 | 83 | 1021.1 |
| 20260506130822 | 48 | 39 | 8.0 | 14.0 | 0.00 | 0.00 | 0.00 | 83 | 1020.8 |
| 20260506130318 | 48 | 7 | 4.0 | 9.0 | 0.00 | 0.00 | 0.00 | 83 | 1021.1 |
| 20260506125816 | 48 | 357 | 8.0 | 9.0 | 0.00 | 0.00 | 0.00 | 83 | 1021.2 |
| 20260506125314 | 48 | 20 | 3.0 | 8.0 | 0.00 | 0.00 | 0.00 | 84 | 1021.0 |
| 20260506124813 | 48 | 8 | 4.0 | 10.0 | 0.00 | 0.00 | 0.00 | 85 | 1020.9 |
| 20260506124309 | 48 | 352 | 7.0 | 10.0 | 0.00 | 0.00 | 0.00 | 85 | 1020.7 |
| 20260506123807 | 47 | 354 | 4.0 | 10.0 | 0.00 | 0.00 | 0.00 | 85 | 1020.6 |
| 20260506123305 | 48 | 347 | 7.0 | 10.0 | 0.00 | 0.00 | 0.00 | 85 | 1020.5 |
| 20260506122801 | 47 | 30 | 6.0 | 9.0 | 0.00 | 0.00 | 0.00 | 85 | 1020.5 |
| 20260506122259 | 47 | 359 | 7.0 | 10.0 | 0.00 | 0.00 | 0.00 | 85 | 1020.4 |
| 20260506121757 | 48 | 3 | 6.0 | 7.0 | 0.00 | 0.00 | 0.00 | 85 | 1020.1 |
| 20260506121253 | 48 | 4 | 4.0 | 4.0 | 0.00 | 0.00 | 0.00 | 86 | 1020.0 |
| 20260506120751 | 48 | 10 | 4.0 | 7.0 | 0.00 | 0.00 | 0.00 | 85 | 1020.0 |
| 20260506120248 | 47 | 348 | 3.0 | 8.0 | 0.00 | 0.00 | 0.00 | 85 | 1020.0 |
| 20260506115746 | 47 | 351 | 4.0 | 6.0 | 0.00 | 0.00 | 0.00 | 85 | 1020.1 |
| 20260506115244 | 47 | 12 | 3.0 | 6.0 | 0.00 | 0.00 | 0.00 | 84 | 1019.9 |
| 20260506114741 | 47 | 38 | 3.0 | 11.0 | 0.00 | 0.00 | 0.00 | 84 | 1019.9 |
| 20260506114239 | 47 | 27 | 3.0 | 7.0 | 0.00 | 0.00 | 0.00 | 84 | 1020.0 |
| 20260506113737 | 47 | 353 | 4.0 | 7.0 | 0.00 | 0.00 | 0.00 | 85 | 1019.8 |
| 20260506113234 | 47 | 359 | 5.0 | 9.0 | 0.00 | 0.00 | 0.00 | 84 | 1019.5 |
| 20260506112730 | 47 | 6 | 4.0 | 9.0 | 0.00 | 0.00 | 0.00 | 86 | 1019.6 |
| 20260506112228 | 47 | 349 | 5.0 | 8.0 | 0.00 | 0.00 | 0.00 | 86 | 1019.6 |
| 20260506111725 | 47 | 358 | 4.0 | 7.0 | 0.00 | 0.00 | 0.00 | 86 | 1019.2 |
| 20260506111224 | 47 | 8 | 4.0 | 9.0 | 0.00 | 0.00 | 0.00 | 85 | 1019.2 |
| 20260506110721 | 47 | 12 | 3.0 | 9.0 | 0.00 | 0.00 | 0.00 | 85 | 1019.1 |
| 20260506110218 | 47 | 342 | 5.0 | 7.0 | 0.00 | 0.00 | 0.00 | 86 | 1019.3 |
| 20260506105714 | 47 | 0 | 9.0 | 9.0 | 0.00 | 0.00 | 0.00 | 85 | 1019.1 |
| 20260506105211 | 47 | 359 | 4.0 | 9.0 | 0.00 | 0.00 | 0.00 | 86 | 1018.8 |
| 20260506104709 | 47 | 2 | 4.0 | 7.0 | 0.00 | 0.00 | 0.00 | 86 | 1018.8 |
| 20260506104207 | 47 | 349 | 4.0 | 6.0 | 0.00 | 0.00 | 0.00 | 86 | 1018.8 |
| 20260506103703 | 47 | 3 | 6.0 | 6.0 | 0.00 | 0.00 | 0.00 | 85 | 1018.5 |
| 20260506103200 | 47 | 19 | 6.0 | 6.0 | 0.00 | 0.00 | 0.00 | 84 | 1018.4 |
| 20260506102659 | 47 | 37 | 2.0 | 10.0 | 0.00 | 0.00 | 0.00 | 85 | 1018.0 |
| 20260506102156 | 47 | 7 | 5.0 | 7.0 | 0.00 | 0.00 | 0.00 | 84 | 1018.3 |
| 20260506101652 | 47 | 18 | 4.0 | 6.0 | 0.00 | 0.00 | 0.00 | 85 | 1018.2 |
| 20260506101149 | 47 | 1 | 5.0 | 10.0 | 0.00 | 0.00 | 0.00 | 84 | 1018.1 |
| 20260506100648 | 47 | 349 | 8.0 | 9.0 | 0.00 | 0.00 | 0.00 | 84 | 1017.7 |
| 20260506100145 | 47 | 343 | 5.0 | 13.0 | 0.00 | 0.00 | 0.00 | 84 | 1017.7 |
| 20260506095644 | 47 | 0 | 3.0 | 11.0 | 0.00 | 0.00 | 0.00 | 85 | 1017.5 |
| 20260506095140 | 47 | 46 | 7.0 | 13.0 | 0.00 | 0.00 | 0.00 | 84 | 1017.2 |
| 20260506094637 | 47 | 36 | 5.0 | 13.0 | 0.00 | 0.00 | 0.00 | 84 | 1017.0 |
| 20260506094135 | 47 | 0 | 4.0 | 15.0 | 0.00 | 0.00 | 0.00 | 85 | 1016.8 |
| 20260506093634 | 47 | 15 | 4.0 | 12.0 | 0.00 | 0.00 | 0.00 | 85 | 1016.8 |
| 20260506093130 | 47 | 76 | 5.0 | 13.0 | 0.00 | 0.00 | 0.00 | 85 | 1016.9 |
| 20260506092628 | 47 | 52 | 7.0 | 17.0 | 0.00 | 0.00 | 0.00 | 85 | 1017.1 |
| 20260506092125 | 47 | 328 | 9.0 | 15.0 | 0.00 | 0.00 | 0.00 | 86 | 1017.2 |
| 20260506091623 | 47 | 29 | 6.0 | 16.0 | 0.00 | 0.00 | 0.00 | 85 | 1017.2 |
| 20260506091120 | 47 | 9 | 4.0 | 12.0 | 0.00 | 0.00 | 0.00 | 87 | 1017.3 |
| 20260506090618 | 47 | 1 | 4.0 | 11.0 | 0.00 | 0.00 | 0.00 | 87 | 1017.1 |
| 20260506090114 | 47 | 354 | 7.0 | 12.0 | 0.00 | 0.00 | 0.00 | 88 | 1017.1 |
| 20260506085611 | 47 | 345 | 4.0 | 11.0 | 0.00 | 0.00 | 0.00 | 88 | 1017.2 |
| 20260506085108 | 47 | 9 | 5.0 | 8.0 | 0.00 | 0.00 | 0.00 | 89 | 1017.0 |
| 20260506084604 | 47 | 0 | 5.0 | 9.0 | 0.00 | 0.00 | 0.00 | 89 | 1017.0 |
| 20260506084101 | 48 | 66 | 0.0 | 10.0 | 0.00 | 0.00 | 0.00 | 90 | 1017.4 |
| 20260506083558 | 48 | 355 | 3.0 | 9.0 | 0.00 | 0.00 | 0.00 | 90 | 1017.4 |
| 20260506083055 | 47 | 47 | 7.0 | 12.0 | 0.00 | 0.00 | 0.00 | 90 | 1016.8 |
| 20260506082552 | 48 | 14 | 3.0 | 6.0 | 0.00 | 0.00 | 0.00 | 90 | 1016.7 |
| 20260506082048 | 48 | 355 | 3.0 | 11.0 | 0.00 | 0.00 | 0.00 | 90 | 1016.5 |
| 20260506081546 | 48 | 48 | 5.0 | 14.0 | 0.00 | 0.00 | 0.00 | 90 | 1016.5 |
| 20260506081043 | 48 | 2 | 8.0 | 11.0 | 0.00 | 0.00 | 0.00 | 90 | 1016.2 |
| 20260506080541 | 48 | 40 | 4.0 | 12.0 | 0.00 | 0.00 | 0.00 | 91 | 1016.2 |
| 20260506073524 | 47 | 2 | 6.0 | 12.0 | 0.00 | 0.00 | 0.00 | 92 | 1016.5 |
| 20260506073021 | 47 | 16 | 5.0 | 8.0 | 0.00 | 0.00 | 0.00 | 94 | 1016.6 |
| 20260506072518 | 47 | 0 | 7.0 | 10.0 | 0.00 | 0.00 | 0.00 | 94 | 1015.9 |
| 20260506072016 | 47 | 15 | 4.0 | 8.0 | 0.00 | 0.00 | 0.00 | 94 | 1016.4 |
| 20260506071514 | 47 | 12 | 4.0 | 7.0 | 0.00 | 0.00 | 0.00 | 94 | 1016.5 |
| 20260506071011 | 47 | 39 | 4.0 | 9.0 | 0.00 | 0.00 | 0.00 | 96 | 1016.8 |
| 20260506070508 | 47 | 29 | 4.0 | 8.0 | 0.00 | 0.00 | 0.00 | 96 | 1016.9 |
| 20260506062445 | 47 | 3 | 5.0 | 8.0 | 0.00 | 0.00 | 0.00 | 94 | 1017.0 |
| 20260506061941 | 47 | 68 | 5.0 | 9.0 | 0.00 | 0.00 | 0.00 | 93 | 1017.5 |
| 20260506061438 | 47 | 347 | 5.0 | 12.0 | 0.00 | 0.00 | 0.00 | 93 | 1017.0 |
| 20260506060936 | 47 | 0 | 4.0 | 10.0 | 0.00 | 0.00 | 0.00 | 93 | 1016.2 |
| 20260506060434 | 47 | 41 | 13.0 | 13.0 | 0.00 | 0.00 | 0.00 | 94 | 1016.5 |
| 20260506051406 | 48 | 19 | 4.0 | 8.0 | 0.00 | 0.00 | 0.00 | 94 | 1016.6 |
| 20260506050903 | 48 | 3 | 5.0 | 13.0 | 0.00 | 0.00 | 0.00 | 94 | 1016.2 |
| 20260506050400 | 48 | 31 | 5.0 | 10.0 | 0.00 | 0.00 | 0.00 | 95 | 1016.3 |
| 20260506044850 | 48 | 3 | 6.0 | 9.0 | 0.00 | 0.09 | 0.09 | 96 | 1016.4 |
| 20260506044349 | 48 | 348 | 7.0 | 11.0 | 0.00 | 0.09 | 0.09 | 96 | 1016.4 |
| 20260506043845 | 48 | 6 | 5.0 | 9.0 | 0.00 | 0.09 | 0.09 | 96 | 1016.3 |
| 20260506043342 | 48 | 356 | 3.0 | 7.0 | 0.00 | 0.09 | 0.09 | 96 | 1016.3 |
| 20260506042841 | 48 | 1 | 7.0 | 10.0 | 0.00 | 0.09 | 0.09 | 96 | 1016.3 |
| 20260506042339 | 48 | 343 | 6.0 | 10.0 | 0.00 | 0.09 | 0.09 | 95 | 1016.2 |
| 20260506041838 | 48 | 352 | 6.0 | 10.0 | 0.00 | 0.09 | 0.09 | 95 | 1016.1 |
| 20260506041334 | 49 | 345 | 7.0 | 10.0 | 0.00 | 0.09 | 0.09 | 94 | 1015.8 |
| 20260506040832 | 49 | 358 | 7.0 | 19.0 | 0.00 | 0.09 | 0.09 | 94 | 1016.0 |
| 20260506040329 | 48 | 358 | 4.0 | 12.0 | 0.00 | 0.09 | 0.09 | 94 | 1015.9 |
| 20260506035825 | 49 | 0 | 4.0 | 12.0 | 0.00 | 0.09 | 0.09 | 94 | 1015.8 |
| 20260506035323 | 49 | 352 | 4.0 | 9.0 | 0.00 | 0.09 | 0.09 | 94 | 1015.8 |
| 20260506034820 | 49 | 356 | 2.0 | 12.0 | 0.00 | 0.09 | 0.09 | 94 | 1015.6 |
| 20260506034317 | 49 | 6 | 5.0 | 7.0 | 0.00 | 0.09 | 0.09 | 94 | 1015.7 |
| 20260506033814 | 49 | 17 | 5.0 | 7.0 | 0.00 | 0.09 | 0.09 | 94 | 1015.8 |
| 20260506033311 | 49 | 359 | 4.0 | 13.0 | 0.00 | 0.09 | 0.09 | 94 | 1015.8 |
| 20260506032808 | 49 | 9 | 5.0 | 11.0 | 0.00 | 0.09 | 0.09 | 94 | 1015.6 |
| 20260506032306 | 49 | 4 | 4.0 | 8.0 | 0.00 | 0.09 | 0.09 | 95 | 1015.1 |
| 20260506031801 | 49 | 36 | 6.0 | 10.0 | 0.00 | 0.09 | 0.09 | 95 | 1015.5 |
| 20260506031258 | 49 | 13 | 4.0 | 9.0 | 0.00 | 0.09 | 0.09 | 96 | 1015.3 |
| 20260506030756 | 49 | 357 | 6.0 | 7.0 | 0.00 | 0.09 | 0.09 | 96 | 1015.3 |
| 20260506030254 | 49 | 10 | 5.0 | 8.0 | 0.00 | 0.09 | 0.09 | 96 | 1014.8 |
| 20260506025751 | 49 | 10 | 5.0 | 10.0 | 0.00 | 0.09 | 0.09 | 96 | 1014.8 |
| 20260506025247 | 49 | 356 | 5.0 | 9.0 | 0.00 | 0.09 | 0.09 | 96 | 1014.5 |
| 20260506024744 | 49 | 348 | 6.0 | 9.0 | 0.00 | 0.09 | 0.09 | 96 | 1014.6 |
| 20260506024241 | 49 | 27 | 3.0 | 8.0 | 0.00 | 0.09 | 0.09 | 95 | 1014.1 |
| 20260506023737 | 49 | 27 | 4.0 | 10.0 | 0.00 | 0.09 | 0.09 | 95 | 1014.0 |
| 20260506023234 | 49 | 16 | 4.0 | 13.0 | 0.00 | 0.09 | 0.09 | 95 | 1013.9 |
| 20260506022731 | 49 | 19 | 5.0 | 17.0 | 0.00 | 0.09 | 0.09 | 95 | 1014.0 |
| 20260506022229 | 49 | 33 | 3.0 | 7.0 | 0.00 | 0.09 | 0.09 | 95 | 1014.1 |
| 20260506021726 | 49 | 9 | 5.0 | 9.0 | 0.00 | 0.09 | 0.09 | 95 | 1013.7 |
| 20260506021223 | 49 | 347 | 3.0 | 11.0 | 0.00 | 0.09 | 0.09 | 95 | 1013.8 |
| 20260506020720 | 49 | 27 | 3.0 | 11.0 | 0.00 | 0.09 | 0.09 | 95 | 1013.9 |
| 20260506020218 | 49 | 10 | 5.0 | 12.0 | 0.00 | 0.09 | 0.09 | 95 | 1013.8 |
| 20260506015715 | 49 | 31 | 11.0 | 12.0 | 0.00 | 0.09 | 0.09 | 95 | 1013.8 |
| 20260506015213 | 49 | 19 | 6.0 | 11.0 | 0.00 | 0.09 | 0.09 | 96 | 1013.9 |
| 20260506014710 | 49 | 43 | 5.0 | 11.0 | 0.00 | 0.09 | 0.09 | 96 | 1013.9 |
| 20260506014205 | 49 | 5 | 7.0 | 9.0 | 0.00 | 0.09 | 0.09 | 96 | 1014.0 |
| 20260506013703 | 49 | 355 | 6.0 | 11.0 | 0.00 | 0.09 | 0.09 | 96 | 1014.0 |
| 20260506013200 | 49 | 354 | 8.0 | 13.0 | 0.00 | 0.09 | 0.09 | 96 | 1013.9 |
| 20260506012656 | 49 | 358 | 8.0 | 11.0 | 0.00 | 0.09 | 0.09 | 96 | 1013.8 |
| 20260506012153 | 49 | 1 | 6.0 | 10.0 | 0.00 | 0.09 | 0.09 | 96 | 1014.0 |
| 20260506011651 | 49 | 357 | 6.0 | 12.0 | 0.00 | 0.09 | 0.09 | 96 | 1013.4 |
| 20260506011147 | 49 | 347 | 5.0 | 10.0 | 0.00 | 0.09 | 0.09 | 97 | 1013.5 |
| 20260506010646 | 49 | 356 | 7.0 | 9.0 | 0.00 | 0.09 | 0.09 | 97 | 1013.3 |